Location: Meanaryar
(48.4161°N, 4.7315°W)
Time: 10:47:19
(UTC+00:00)

ATLAS 3B R/B - Pass Details

Date: 18 September 2020
Orbit: 1016 x 1179 km, 63.8° (Epoch: 04 October)

Event Time Altitude Azimuth Distance (km) Brightness Sun altitude
Rises 23:10:53 0° 315° (NW) 3,847 6.4 -38.4°
Reaches altitude 10° 23:13:42 10° 307° (NW) 2,911 5.5 -38.6°
Enters shadow 23:17:17 27° 283° (WNW) 1,944 4.2 -38.8°
